This is the latest recevied weather packets stored in our database for station/object N3EDS. If no packets are shown the sender has not sent any weather packets the latest 10 day(s).
| Time | Temp. | Humidity | Pressure | Rain* | Wind** | Luminosity | Snow |
|---|---|---|---|---|---|---|---|
| 1777860140 | 5° C | 65% | 1015 hPa | 0 mm | - | 0 W/m² | - |
| 1777859837 | 5.56° C | 71% | 1015 hPa | 0 mm | - | 0 W/m² | - |
| 1777859533 | 5.56° C | 64% | 1015.3 hPa | 0 mm | - | 0 W/m² | - |
| 1777859229 | 5.56° C | 63% | 1015.2 hPa | 0 mm | - | 0 W/m² | - |
| 1777858926 | 5.56° C | 63% | 1014.9 hPa | 0 mm | - | 0 W/m² | - |
| 1777858624 | 5.56° C | 65% | 1015.2 hPa | 0 mm | - | 0 W/m² | - |
| 1777858321 | 6.11° C | 64% | 1014.8 hPa | 0 mm | - | 0 W/m² | - |
| 1777858017 | 6.11° C | 66% | 1015 hPa | 0 mm | - | 0 W/m² | - |
| 1777857715 | 6.11° C | 64% | 1014.8 hPa | 0 mm | - | 0 W/m² | - |
| 1777857412 | 6.67° C | 64% | 1014.8 hPa | 0 mm | - | 0 W/m² | - |
| 1777857108 | 6.67° C | 59% | 1014.7 hPa | 0 mm | - | 0 W/m² | - |
| 1777856804 | 7.22° C | 59% | 1015 hPa | 0 mm | - | 0 W/m² | - |
| 1777856500 | 7.22° C | 60% | 1014.8 hPa | 0 mm | - | 0 W/m² | - |
| 1777856197 | 7.22° C | 60% | 1015.2 hPa | 0 mm | - | 0 W/m² | - |
| 1777855894 | 7.22° C | 62% | 1014.9 hPa | 0 mm | - | 0 W/m² | - |
| 1777855592 | 7.78° C | 61% | 1014.8 hPa | 0 mm | - | 0 W/m² | - |
| 1777855289 | 7.78° C | 59% | 1014.7 hPa | 0 mm | - | 0 W/m² | - |
| 1777854985 | 8.33° C | 57% | 1015 hPa | 0 mm | - | 0 W/m² | - |
| 1777854682 | 8.33° C | 58% | 1014.6 hPa | 0 mm | - | 0 W/m² | - |
| 1777854379 | 8.89° C | 56% | 1014.8 hPa | 0 mm | - | 0 W/m² | - |
| 1777854076 | 8.89° C | 54% | 1014.8 hPa | 0 mm | - | 1 W/m² | - |
| 1777853774 | 8.89° C | 54% | 1014.7 hPa | 0 mm | - | 1 W/m² | - |
| 1777853469 | 9.44° C | 55% | 1015 hPa | 0 mm | - | 2 W/m² | - |
| 1777853167 | 9.44° C | 51% | 1014.8 hPa | 0 mm | - | 4 W/m² | - |
| 1777852865 | 9.44° C | 50% | 1014.8 hPa | 0 mm | - | 6 W/m² | - |
* Rain latest hour (hover to see other rain measurements)
** Current wind speed in m/s (hover to see current wind gust speed)